Zurück zum Katalog

STARLINK-3049

AktivKommunikationVLEO
NORAD 49436·PAYLOAD·🇺🇸 United States

Gestartet Nov 13, 2021 von Cape Canaveral Space Force Station

Loading…

Nächste Überflüge (nächste 24 Stunden)

TLE

AktuellSource: CelesTrak SupGP

Epoche: Sep 14, 2026, 21:39 UTC

1 49436C 21104AE  26257.90256944  .00023640  00000+0  67640-3 0  2572
2 49436  53.1604  76.2212 0001103  73.4627  61.8271 15.35384922    19

Verfolge STARLINK-3049 in Echtzeit mit AllMySat

Download on the App Store